Погода в Больших Катрасях

Россия / Чувашская Республика     56°03′56″N   47°07′37″E
темп.,
°C
ветер,
м/с
пор.,
м/с
влажн.,
%
обл.,
%
осадки,
мм/ч
давл.,
гПа
погр.,
м
8 мая, сб
сб800:00+7ссз2491100 0.1 1016151
03:00+6с1190100 0.1 101722
06:00+7св238794 0.0 1018169
09:00+11в45687 0.0 1017962
12:00+12вюв446845 0.0 1017916
15:00+12вюв5575100 0.0 1015878
18:00+12юв368181 0.1 1014682
21:00+9вюв339199 0.1 101244
9 мая, вс
вс900:00+10ююв51288100 0.0 1011260
03:00+9ююв4989100 0.0 1010176
06:00+11ююв61480100 0.0 1010357
09:00+13ююв61373100 0.3 1010522
12:00+17ю61068100 0.1 1010953
15:00+18ю61165100 0.2 10101337
18:00+13зюз3697100 2.5 1012344
21:00+9з3695100 5.0 1015329
10 мая, пн
пн1000:00+7з4694100 0.2 1017341
03:00+5зсз4791100 0.2 1019473
06:00+6сз5891100 0.0 1021548
09:00+7ссз5789100 0.1 1024671
12:00+8ссз5786100 0.1 1025730
15:00+10с6873100 0.1 1027953
18:00+10ссв5874100 0.0 1028777
21:00+6ссв358751 0.0 102979
11 мая, вт
вт1100:00+4ссв34880 0.0 103064
03:00+3ссв35903 0.0 103184
06:00+6св38805 0.0 1032219
09:00+12всв57555 0.0 1032825
12:00+15всв56435 0.0 10311130
15:00+17всв56415 0.0 10301262
18:00+15всв36614 0.0 1030157
21:00+10всв34700 0.0 103141
12 мая, ср
ср1200:00+8всв35725 0.0 103168
03:00+7всв34743 0.0 103146
06:00+9в26735 0.0 1032175
09:00+15в46555 0.0 1031495
12:00+18в45465 0.0 1031979
15:00+19вюв454617 0.0 10301095
18:00+17в366532 0.0 1029152
21:00+13в34751 0.0 102949